TimeCDT,TemperatureF,Dew PointF,Humidity,Sea Level PressureIn,VisibilityMPH,Wind Direction,Wind SpeedMPH,Gust SpeedMPH,PrecipitationIn,Events,Conditions,WindDirDegrees,DateUTC
12:53 AM,80.1,66.9,64,29.81,10.0,South,11.5,-,N/A,,Clear,180,2013-09-19 05:53:00
1:53 AM,79.0,66.9,66,29.82,10.0,South,10.4,-,N/A,,Clear,190,2013-09-19 06:53:00
2:53 AM,78.1,66.9,68,29.81,10.0,South,10.4,-,N/A,,Clear,190,2013-09-19 07:53:00
3:53 AM,77.0,66.0,69,29.81,10.0,South,11.5,-,N/A,,Clear,180,2013-09-19 08:53:00
4:53 AM,75.9,64.9,69,29.82,10.0,South,8.1,-,N/A,,Clear,180,2013-09-19 09:53:00
5:53 AM,75.0,64.9,71,29.81,10.0,South,11.5,-,N/A,,Clear,180,2013-09-19 10:53:00
6:53 AM,75.0,66.0,73,29.81,10.0,South,10.4,-,N/A,,Clear,180,2013-09-19 11:53:00
7:53 AM,75.9,66.0,71,29.81,10.0,South,11.5,-,N/A,,Clear,180,2013-09-19 12:53:00
8:53 AM,78.1,66.0,66,29.82,10.0,SSW,13.8,20.7,N/A,,Clear,200,2013-09-19 13:53:00
9:53 AM,82.0,66.0,58,29.83,10.0,SSW,11.5,-,N/A,,Clear,200,2013-09-19 14:53:00
10:53 AM,84.9,66.0,53,29.83,10.0,SSW,11.5,-,N/A,,Clear,200,2013-09-19 15:53:00
11:53 AM,89.1,66.0,46,29.82,10.0,SSW,16.1,27.6,N/A,,Mostly Cloudy,200,2013-09-19 16:53:00
12:53 PM,91.0,66.9,45,29.81,10.0,SSW,17.3,27.6,N/A,,Clear,200,2013-09-19 17:53:00
1:53 PM,91.9,66.0,42,29.78,10.0,SSW,17.3,28.8,N/A,,Clear,210,2013-09-19 18:53:00
2:53 PM,93.0,64.9,39,29.74,10.0,SSW,26.5,35.7,N/A,,Scattered Clouds,200,2013-09-19 19:53:00
3:53 PM,93.0,64.9,39,29.70,10.0,SSW,15.0,27.6,N/A,,Partly Cloudy,200,2013-09-19 20:53:00
4:53 PM,90.0,66.0,45,29.71,10.0,SSW,18.4,29.9,N/A,,Scattered Clouds,210,2013-09-19 21:53:00
5:21 PM,82.9,66.0,56,29.77,10.0,NW,15.0,29.9,N/A,Thunderstorm,Mostly Cloudy,320,2013-09-19 22:21:00
5:25 PM,79.0,66.9,66,29.77,10.0,North,11.5,29.9,N/A,Thunderstorm,Thunderstorm,360,2013-09-19 22:25:00
5:35 PM,77.0,68.0,74,29.83,1.8,West,11.5,23.0,0.04,Rain-Thunderstorm,Heavy Thunderstorms and Rain,260,2013-09-19 22:35:00
5:41 PM,73.0,69.1,87,29.83,0.5,NW,9.2,25.3,0.34,Fog-Rain-Thunderstorm,Heavy Thunderstorms and Rain,310,2013-09-19 22:41:00
5:45 PM,72.0,69.1,91,29.83,0.8,WNW,4.6,25.3,0.48,Rain-Thunderstorm,Heavy Thunderstorms and Rain,290,2013-09-19 22:45:00
5:50 PM,73.4,69.8,88,29.83,2.0,West,6.9,-,0.49,Rain-Thunderstorm,Light Thunderstorms and Rain,280,2013-09-19 22:50:00
5:53 PM,73.9,69.1,85,29.80,6.0,West,5.8,-,0.49,Rain-Thunderstorm,Light Thunderstorms and Rain,280,2013-09-19 22:53:00
6:01 PM,73.9,69.1,85,29.82,10.0,WNW,8.1,-,0.00,Rain-Thunderstorm,Light Thunderstorms and Rain,290,2013-09-19 23:01:00
6:14 PM,73.0,69.1,87,29.81,5.0,NW,13.8,-,0.00,Rain-Thunderstorm,Rain,310,2013-09-19 23:14:00
6:24 PM,73.0,68.0,84,29.82,9.0,NNW,9.2,-,0.02,Rain-Thunderstorm,Light Thunderstorms and Rain,330,2013-09-19 23:24:00
6:44 PM,71.1,66.0,84,29.83,10.0,North,8.1,-,0.03,Rain,Light Rain,350,2013-09-19 23:44:00
6:53 PM,71.1,66.0,84,29.83,10.0,North,5.8,-,0.03,Rain,Light Rain,360,2013-09-19 23:53:00
7:07 PM,71.1,66.0,84,29.88,10.0,NE,6.9,-,0.00,Rain-Thunderstorm,Light Rain,40,2013-09-20 00:07:00
7:17 PM,71.1,66.0,84,29.90,10.0,ENE,5.8,-,0.00,Thunderstorm,Overcast,60,2013-09-20 00:17:00
7:27 PM,71.1,64.9,81,29.90,10.0,NE,4.6,-,0.00,,Overcast,50,2013-09-20 00:27:00
7:53 PM,70.0,66.0,87,29.90,10.0,NNE,3.5,-,0.00,Thunderstorm,Thunderstorm,20,2013-09-20 00:53:00
8:11 PM,71.1,66.0,84,29.93,10.0,SSE,6.9,-,N/A,,Overcast,150,2013-09-20 01:11:00
8:41 PM,70.0,66.0,87,29.94,2.5,North,4.6,-,0.01,Rain,Light Rain,10,2013-09-20 01:41:00
8:48 PM,69.8,66.2,88,29.95,3.0,Calm,Calm,-,0.02,Rain,Light Rain,0,2013-09-20 01:48:00
8:51 PM,69.8,66.2,88,29.95,3.0,Calm,Calm,-,0.02,Rain,Light Rain,0,2013-09-20 01:51:00
8:53 PM,70.0,66.0,87,29.93,3.0,Calm,Calm,-,0.02,Rain,Light Rain,0,2013-09-20 01:53:00
9:03 PM,69.1,66.9,93,29.96,5.0,Calm,Calm,-,0.00,Rain,Light Rain,0,2013-09-20 02:03:00
9:31 PM,70.0,66.9,90,29.95,10.0,Calm,Calm,-,0.00,,Mostly Cloudy,0,2013-09-20 02:31:00
9:49 PM,69.8,66.2,88,29.96,10.0,Calm,Calm,-,0.00,,Mostly Cloudy,0,2013-09-20 02:49:00
9:53 PM,70.0,66.9,90,29.94,10.0,Calm,Calm,-,0.00,,Overcast,0,2013-09-20 02:53:00
10:50 PM,69.8,66.2,88,29.96,10.0,WNW,4.6,-,N/A,,Overcast,300,2013-09-20 03:50:00
10:53 PM,70.0,66.9,90,29.94,10.0,WNW,5.8,-,N/A,,Overcast,300,2013-09-20 03:53:00
11:53 PM,68.0,64.0,87,29.94,10.0,WNW,8.1,-,N/A,,Mostly Cloudy,300,2013-09-20 04:53:00